Regional Weather Roundup
Issued by NWS Albany, NY

Home | Current Version | Previous Version | Text Only | Print | Product List | Glossary On
Versions: 1 2 3 4 5 6 7 8 9 10 11 12 13 14 15 16 17 18 19 20 21 22 23 24 25 26 27 28 29 30 31 32 33 34 35 36 37 38 39 40 41 42 43 44 45 46 47 48 49 50
789
ASUS41 KALY 051710
RWRALY

NEW YORK STATE HOURLY WEATHER ROUNDUP
NATIONAL WEATHER SERVICE ALBANY NY
1200 PM EST MON DEC 05 2016

NOTE: "FAIR" INDICATES FEW OR NO CLOUDS BELOW 12,000 FEET WITH NO
SIGNIFICANT WEATHER AND/OR NO OBSTRUCTIONS TO VISIBILITY.

NYZ032-033-038>043-046>054-057>066-NYZ062>081-082-084-051800-
EAST


CITY           SKY/WX    TMP DP  RH WIND       PRES   REMARKS
ALBANY         CLOUDY    36  32  85 S12       29.91F WCI  28
GLENS FALLS    CLOUDY    33  28  81 CALM      29.89F HAZE
POUGHKEEPSIE   CLOUDY    37  34  89 SW5       29.95F WCI  33
NEWBURGH       CLOUDY    37  37 100 W12       29.95F WCI  30
MONTGOMERY     CLOUDY    39  35  86 S3        29.94S
WHITE PLAINS   MOSUNNY   43  37  79 W9        29.93F
ISLIP          CLOUDY    47  40  76 W10       29.94F
NEW YORK CITY  MOSUNNY   47  38  71 W14G25    29.95F
CENTRAL PARK   SUNNY     45  37  73 NW10G18   29.98F
$$

NYZ005>009-017-018-044>046-055-056-051800-
CENTRAL


CITY           SKY/WX    TMP DP  RH WIND       PRES   REMARKS
FULTON         CLOUDY    38  32  79 W14       29.90R WCI  30
SYRACUSE       CLOUDY    38  31  76 W20G32    29.91R WCI  28
ROME           CLOUDY    38  33  82 W16G23    29.90R WCI  29
ELMIRA         CLOUDY    42  32  67 W8        29.93R
BINGHAMTON     CLOUDY    36  31  82 W15G24    29.88F WCI  27
MONTICELLO     CLOUDY    34  34 100 W7        29.91F WCI  28
$$

NYZ026>034-041>043-087-051800-
NORTH


CITY           SKY/WX    TMP DP  RH WIND       PRES   REMARKS
WATERTOWN      CLOUDY    38  33  82 W17G28    29.86R WCI  28
FORT DRUM      NOT AVBL
OGDENSBURG     FLURRIES  33  31  93 CALM      29.83R
MASSENA        CLOUDY    31  27  85 NE3       29.83F
SARANAC LAKE   SNOW      29  26  89 SW8       29.75S VSB 1/2 WCI  21
PLATTSBURGH    FLURRIES  32  28  85 S10       29.83F WCI  24
$$

NYZ001>004-010>016-019>021-085-051800-
WEST


CITY           SKY/WX    TMP DP  RH WIND       PRES   REMARKS
NIAGARA FALLS  PTSUNNY   41  31  67 SW17      29.95F
BUFFALO        CLOUDY    39  28  64 W18G30    29.95F WCI  30
DUNKIRK        CLOUDY    40  32  73 W14G21    29.99F WCI  32
JAMESTOWN      CLOUDY    36  28  75 W10G17    29.96F WCI  28
WELLSVILLE     CLOUDY    37  30  75 W12G22    29.93F WCI  29
ROCHESTER      CLOUDY    41  30  65 W22G30    29.93S
PENN YAN       CLOUDY    40  29  64 SW12G22   29.93R WCI  33
$$

             KEY
       WCI = WIND CHILL INDEX
       VSB = VISIBILITY
       HX  = HEAT INDEX
$$




USA.gov is the U.S. government's official web portal to all federal, state and local government web resources and services.